Simultaneous Nadir Overpasses (SNOs) Predictions

Prediction of SNOs between FY3D and METOP-C Satellite Orbit:

Table of predicted SNOs for the next 14.0 days since TLE Epoch: 9/17/2022
Index Date (FY3D) Time (FY3D) Lat,Lon (FY3D) SZA (FY3D ) Date (METOP-C) Time (METOP-C) Lat,Lon (METOP-C) SZA (METOP-C ) Distance(km) Time Diff (sec)
1 09/26/2022 19:38:28 75.01,-121.47 76.45 09/26/2022 19:39:33 74.94,-118.02 76.33 99.51 65
2 09/26/2022 20:29:10 -74.84, 46.34 103.73 09/26/2022 20:30:18 -74.79, 48.87 103.81 73.93 68
3 09/26/2022 21:19:52 74.66,-145.86 76.11 09/26/2022 21:21:02 74.58,-144.35 76.00 45.26 70
4 09/26/2022 22:10:34 -74.49, 21.92 104.07 09/26/2022 22:11:47 -74.42, 22.56 104.14 20.34 73
5 09/26/2022 23:01:16 74.31,-170.29 75.77 09/26/2022 23:02:29 74.31,-170.39 75.77 3.04 73
6 09/26/2022 23:52:02 -74.33, -3.04 104.20 09/26/2022 23:53:11 -74.30, -3.09 104.23 3.20 69
7 09/27/2022 00:42:48 74.34, 164.24 75.83 09/27/2022 00:43:50 74.34, 164.33 75.82 2.94 62
8 09/27/2022 01:33:33 -74.31, -28.38 104.19 09/27/2022 01:34:32 -74.33, -28.36 104.18 1.61 59
9 09/27/2022 02:24:19 74.33, 138.89 75.84 09/27/2022 02:25:12 74.31, 138.93 75.82 2.19 53
10 09/27/2022 03:15:04 -74.30, -53.72 104.18 09/27/2022 03:15:54 -74.30, -53.76 104.18 1.25 50
11 09/27/2022 04:05:50 74.31, 113.55 75.86 09/27/2022 04:06:34 74.29, 113.53 75.83 3.09 44
12 09/27/2022 04:56:35 -74.29, -79.07 104.16 09/27/2022 04:57:16 -74.28, -79.16 104.17 2.95 41
13 09/27/2022 05:47:21 74.30, 88.21 75.87 09/27/2022 05:47:55 74.31, 88.25 75.88 1.93 34
14 09/27/2022 06:38:07 -74.32,-104.54 104.10 09/27/2022 06:38:37 -74.31,-104.44 104.12 3.46 30
15 09/27/2022 07:28:52 74.29, 62.86 75.88 09/27/2022 07:29:17 74.29, 62.85 75.88 0.32 25
16 09/27/2022 08:19:38 -74.31,-129.88 104.09 09/27/2022 08:19:59 -74.28,-129.84 104.11 3.14 21
17 09/27/2022 09:10:23 74.27, 37.52 75.90 09/27/2022 09:10:39 74.26, 37.45 75.89 2.24 16
18 09/27/2022 10:01:09 -74.29,-155.23 104.07 09/27/2022 10:01:20 -74.31,-155.11 104.06 3.66 11
19 09/27/2022 10:51:54 74.26, 12.17 75.91 09/27/2022 10:52:00 74.29, 12.18 75.94 3.32 6
20 09/27/2022 11:42:40 -74.28, 179.43 104.06 09/27/2022 11:42:42 -74.28, 179.49 104.06 1.70 2
21 09/27/2022 12:33:25 74.25, -13.17 75.92 09/27/2022 12:33:22 74.27, -13.23 75.94 2.74 3
22 09/27/2022 13:24:11 -74.27, 154.09 104.05 09/27/2022 13:24:04 -74.26, 154.09 104.05 0.75 7
23 09/27/2022 14:14:56 74.23, -38.51 75.94 09/27/2022 14:14:44 74.24, -38.63 75.95 3.53 12
24 09/27/2022 15:05:42 -74.25, 128.74 104.03 09/27/2022 15:05:26 -74.24, 128.69 104.05 2.52 16
25 09/27/2022 15:56:27 74.27, -63.98 76.00 09/27/2022 15:56:04 74.27, -63.90 76.00 2.47 23
26 09/27/2022 16:47:12 -74.24, 103.40 104.02 09/27/2022 16:46:46 -74.26, 103.41 104.00 2.50 26
27 09/27/2022 17:37:58 74.25, -89.33 76.01 09/27/2022 17:37:26 74.24, -89.30 76.00 1.44 32
28 09/27/2022 18:28:43 -74.23, 78.05 104.01 09/27/2022 18:28:08 -74.24, 78.01 103.99 1.90 35
29 09/27/2022 19:19:29 74.24,-114.67 76.03 09/27/2022 19:18:48 74.22,-114.70 76.01 2.55 41
30 09/27/2022 20:10:14 -74.21, 52.71 104.00 09/27/2022 20:09:30 -74.21, 52.61 103.99 3.01 44
31 09/27/2022 21:01:00 74.23,-140.02 76.04 09/27/2022 21:00:09 74.24,-139.98 76.06 2.24 51
32 09/27/2022 21:51:46 -74.25, 27.24 103.93 09/27/2022 21:50:51 -74.24, 27.34 103.94 2.96 55
33 09/27/2022 22:42:31 74.21,-165.36 76.05 09/27/2022 22:41:31 74.22,-165.38 76.06 1.00 60
34 09/27/2022 23:33:17 -74.23, 1.90 103.92 09/27/2022 23:32:13 -74.22, 1.94 103.93 2.27 64
35 09/28/2022 00:24:02 74.20, 169.30 76.06 09/28/2022 00:22:53 74.20, 169.22 76.07 2.33 69
36 09/28/2022 01:14:48 -74.22, -23.45 103.91 09/28/2022 01:13:35 -74.19, -23.46 103.93 3.10 73
37 09/28/2022 02:05:30 74.04, 144.32 75.93 09/28/2022 02:04:18 74.02, 143.45 75.93 26.70 72
38 09/28/2022 02:56:13 -73.91, -48.05 104.19 09/28/2022 02:55:02 -73.92, -49.47 104.16 43.53 71
39 09/28/2022 03:46:54 73.68, 119.82 75.59 09/28/2022 03:45:47 73.65, 117.23 75.60 81.26 67
40 09/28/2022 04:37:37 -73.55, -72.57 104.53 09/28/2022 04:36:31 -73.55, -75.68 104.49 97.80 66



Historial Predications of SNOs between FY3D and METOP-C
